Terug naar catalogus

OPS 5721

ActiefMilitairSSO
NORAD 9415·PAYLOAD·🇺🇸 United States

Gelanceerd Sep 11, 1976 vanaf Vandenberg Space Force Base

Loading…

Volgende Passages (komende 24 uur)

TLE

VersSource: Space-Track

Epoch: Sep 14, 2026, 09:57 UTC

1 09415U 76091A   26257.41524236  .00000092  00000-0  53934-4 0  9990
2 09415  98.3713  44.6219 0017126 359.7535   0.3635 14.27887463365249

Volg OPS 5721 in realtime met AllMySat

Download on the App Store